Hourly Weather Praha

Today, 3 August, Tuesday

Time Temperature Precipitation Wind Pressure Humidity
00:00 +15°C° 0 mm 2 mps 742 mmHg 87%
01:00 +14°C° 0 mm 2 mps 742 mmHg 89%
02:00 +14°C° 0 mm 2 mps 742 mmHg 90%
03:00 +14°C° 0 mm 2 mps 742 mmHg 91%
04:00 +13°C° 0 mm 2 mps 742 mmHg 92%
05:00 +14°C° 0 mm 2 mps 742 mmHg 87%
06:00 +16°C° 0 mm 2 mps 742 mmHg 83%
07:00 +17°C° 0 mm 2 mps 742 mmHg 79%
08:00 +18°C° 0 mm 2 mps 742 mmHg 72%
09:00 +20°C° 0 mm 2 mps 742 mmHg 65%
10:00 +23°C° 0 mm 2 mps 742 mmHg 58%
11:00 +23°C° 0 mm 2 mps 742 mmHg 54%
12:00 +24°C° 0 mm 3 mps 742 mmHg 50%
13:00 +25°C° 0 mm 3 mps 741 mmHg 45%
14:00 +25°C° 0 mm 3 mps 741 mmHg 46%
15:00 +25°C° 0 mm 2 mps 741 mmHg 47%
16:00 +25°C° 0 mm 2 mps 740 mmHg 48%
17:00 +24°C° 0 mm 2 mps 740 mmHg 54%
18:00 +23°C° 0 mm 2 mps 740 mmHg 59%
19:00 +22°C° 0 mm 1 mps 740 mmHg 65%
20:00 +19°C° 0.7 mm 2 mps 741 mmHg 73%
21:00 +18°C° 0.7 mm 2 mps 741 mmHg 80%
22:00 +16°C° 0.7 mm 2 mps 741 mmHg 88%
23:00 +16°C° 0.4 mm 2 mps 741 mmHg 88%

Tomorrow, 4 August, Wednesday

Time Temperature Precipitation Wind Pressure Humidity
00:00 +16°C° 0.4 mm 2 mps 741 mmHg 89%
01:00 +16°C° 0.4 mm 2 mps 741 mmHg 89%
02:00 +16°C° 0.3 mm 2 mps 741 mmHg 91%
03:00 +16°C° 0.3 mm 2 mps 741 mmHg 92%
04:00 +16°C° 0.3 mm 2 mps 741 mmHg 93%
05:00 +16°C° 0.3 mm 2 mps 741 mmHg 92%
06:00 +16°C° 0.3 mm 2 mps 741 mmHg 92%
07:00 +16°C° 0.3 mm 3 mps 742 mmHg 92%
08:00 +16°C° 0.1 mm 2 mps 742 mmHg 91%
09:00 +16°C° 0.1 mm 2 mps 742 mmHg 90%
10:00 +17°C° 0.1 mm 2 mps 742 mmHg 89%
11:00 +17°C° 0.2 mm 2 mps 741 mmHg 87%
12:00 +17°C° 0.2 mm 2 mps 741 mmHg 84%
13:00 +18°C° 0.2 mm 2 mps 741 mmHg 82%
14:00 +19°C° 0 mm 2 mps 741 mmHg 76%
15:00 +21°C° 0 mm 1 mps 740 mmHg 70%
16:00 +22°C° 0 mm 1 mps 740 mmHg 64%
17:00 +21°C° 0 mm 1 mps 740 mmHg 67%
18:00 +20°C° 0 mm 1 mps 740 mmHg 71%
19:00 +20°C° 0 mm 1 mps 740 mmHg 75%
20:00 +19°C° 0 mm 1 mps 740 mmHg 77%
21:00 +19°C° 0 mm 1 mps 740 mmHg 79%
22:00 +18°C° 0 mm 1 mps 740 mmHg 80%
23:00 +16°C° 0 mm 0 mps 740 mmHg 81%

Day after tomorrow, 5 August, Thursday

Time Temperature Precipitation Wind Pressure Humidity
00:00 +16°C° 0 mm 0 mps 739 mmHg 82%
01:00 +16°C° 0 mm 0 mps 739 mmHg 83%
02:00 +15°C° 0.4 mm 0 mps 739 mmHg 86%
03:00 +16°C° 0.4 mm 1 mps 739 mmHg 89%
04:00 +16°C° 0.4 mm 1 mps 738 mmHg 93%
05:00 +16°C° 1.6 mm 1 mps 738 mmHg 94%
06:00 +16°C° 1.6 mm 1 mps 738 mmHg 95%
07:00 +15°C° 1.6 mm 1 mps 738 mmHg 96%
08:00 +16°C° 0.8 mm 1 mps 738 mmHg 95%
09:00 +16°C° 0.8 mm 1 mps 738 mmHg 93%
10:00 +16°C° 0.8 mm 1 mps 738 mmHg 92%
11:00 +16°C° 0.4 mm 1 mps 738 mmHg 92%
12:00 +18°C° 0.4 mm 1 mps 738 mmHg 91%
13:00 +18°C° 0.4 mm 1 mps 738 mmHg 91%
14:00 +18°C° 0.1 mm 1 mps 738 mmHg 89%
15:00 +18°C° 0.1 mm 1 mps 738 mmHg 88%
16:00 +18°C° 0.1 mm 1 mps 737 mmHg 86%
17:00 +18°C° 0 mm 1 mps 737 mmHg 87%
18:00 +18°C° 0 mm 1 mps 737 mmHg 89%
19:00 +18°C° 0 mm 1 mps 737 mmHg 90%
20:00 +16°C° 0 mm 1 mps 737 mmHg 91%
21:00 +15°C° 0 mm 1 mps 737 mmHg 92%
22:00 +15°C° 0 mm 1 mps 737 mmHg 93%
23:00 +15°C° 0 mm 1 mps 737 mmHg 93%

6 August, Friday

Time Temperature Precipitation Wind Pressure Humidity
00:00 +14°C° 0 mm 1 mps 737 mmHg 93%
01:00 +14°C° 0 mm 2 mps 737 mmHg 93%
02:00 +14°C° 0 mm 2 mps 737 mmHg 94%
03:00 +14°C° 0 mm 2 mps 737 mmHg 94%
04:00 +14°C° 0 mm 2 mps 737 mmHg 94%
05:00 +13°C° 0 mm 3 mps 737 mmHg 92%
06:00 +14°C° 0 mm 4 mps 737 mmHg 89%
07:00 +15°C° 0 mm 4 mps 737 mmHg 86%
08:00 +17°C° 0 mm 4 mps 737 mmHg 78%
09:00 +19°C° 0 mm 4 mps 738 mmHg 71%
10:00 +20°C° 0 mm 4 mps 738 mmHg 63%
11:00 +22°C° 0 mm 4 mps 738 mmHg 58%
12:00 +23°C° 0 mm 5 mps 737 mmHg 52%
13:00 +25°C° 0 mm 5 mps 737 mmHg 47%
14:00 +25°C° 0 mm 5 mps 737 mmHg 48%
15:00 +25°C° 0 mm 5 mps 737 mmHg 49%
16:00 +25°C° 0 mm 5 mps 737 mmHg 50%
17:00 +23°C° 0 mm 4 mps 737 mmHg 57%
18:00 +21°C° 0 mm 3 mps 737 mmHg 64%
19:00 +20°C° 0 mm 2 mps 737 mmHg 70%
20:00 +19°C° 0 mm 2 mps 737 mmHg 76%
21:00 +18°C° 0 mm 2 mps 738 mmHg 81%
22:00 +17°C° 0 mm 3 mps 738 mmHg 86%
23:00 +16°C° 0 mm 2 mps 738 mmHg 87%

7 August, Saturday

Time Temperature Precipitation Wind Pressure Humidity
00:00 +16°C° 0 mm 2 mps 738 mmHg 89%
01:00 +16°C° 0 mm 2 mps 738 mmHg 90%
02:00 +15°C° 0 mm 2 mps 738 mmHg 90%
03:00 +15°C° 0 mm 2 mps 738 mmHg 90%
04:00 +15°C° 0 mm 2 mps 738 mmHg 90%
05:00 +16°C° 0 mm 2 mps 738 mmHg 85%
06:00 +17°C° 0 mm 2 mps 739 mmHg 81%
07:00 +18°C° 0 mm 2 mps 739 mmHg 77%
08:00 +20°C° 0 mm 2 mps 738 mmHg 69%
09:00 +23°C° 0 mm 2 mps 738 mmHg 62%
10:00 +25°C° 0 mm 2 mps 738 mmHg 54%
11:00 +26°C° 0 mm 2 mps 738 mmHg 50%
12:00 +27°C° 0 mm 2 mps 737 mmHg 47%
13:00 +28°C° 0 mm 2 mps 737 mmHg 43%
14:00 +28°C° 0 mm 3 mps 736 mmHg 43%
15:00 +29°C° 0 mm 3 mps 736 mmHg 44%
16:00 +29°C° 0 mm 3 mps 736 mmHg 45%
17:00 +27°C° 0 mm 3 mps 735 mmHg 51%
18:00 +26°C° 0 mm 3 mps 734 mmHg 57%
19:00 +25°C° 0 mm 3 mps 734 mmHg 62%
20:00 +22°C° 0.6 mm 4 mps 734 mmHg 71%
21:00 +21°C° 0.6 mm 5 mps 735 mmHg 79%
22:00 +19°C° 0.6 mm 6 mps 736 mmHg 88%
23:00 +19°C° 1.8 mm 5 mps 736 mmHg 89%

8 August, Sunday

Time Temperature Precipitation Wind Pressure Humidity
00:00 +17°C° 1.8 mm 5 mps 737 mmHg 91%
01:00 +18°C° 1.8 mm 4 mps 737 mmHg 93%
02:00 +17°C° 0.1 mm 5 mps 738 mmHg 92%
03:00 +16°C° 0.1 mm 5 mps 738 mmHg 91%
04:00 +16°C° 0.1 mm 5 mps 738 mmHg 89%
05:00 +16°C° 0 mm 5 mps 739 mmHg 87%
06:00 +18°C° 0 mm 4 mps 739 mmHg 85%
07:00 +18°C° 0 mm 4 mps 740 mmHg 83%
08:00 +19°C° 0 mm 4 mps 740 mmHg 79%
09:00 +20°C° 0 mm 5 mps 741 mmHg 74%
10:00 +20°C° 0 mm 5 mps 741 mmHg 70%
11:00 +21°C° 0.3 mm 5 mps 741 mmHg 65%
12:00 +22°C° 0.3 mm 6 mps 741 mmHg 60%
13:00 +23°C° 0.3 mm 6 mps 741 mmHg 55%
14:00 +23°C° 0.1 mm 6 mps 742 mmHg 55%
15:00 +23°C° 0.1 mm 6 mps 742 mmHg 55%
16:00 +23°C° 0.1 mm 5 mps 742 mmHg 56%
17:00 +21°C° 0.5 mm 5 mps 743 mmHg 63%
18:00 +20°C° 0.5 mm 5 mps 743 mmHg 70%
19:00 +17°C° 0.5 mm 5 mps 744 mmHg 77%
20:00 +17°C° 0 mm 4 mps 744 mmHg 80%
21:00 +15°C° 0 mm 4 mps 744 mmHg 84%
22:00 +15°C° 0 mm 4 mps 745 mmHg 87%
23:00 +14°C° 0 mm 3 mps 745 mmHg 88%
Show more

We Need Your Consent

Meteoprog and our Service Providers may store and access personal data such as cookies, device identifiers or other similar technologies on your device and process such data to personalise content and ads, as well as provide social media features and to analyse the traffic.

  • Store and/or access information on your device

    Cookies, device identifiers or other information can be stored or accessed on your device for the purposes indicated above.

  • Personalised ads and content, ad and content measurement, audience insights, and products development

    Ads and content can be personalised based on a profile. More data can be added to better personalise ads and content. Ad and content performance can be measured. Insights about the audience who saw the ads and content can be derived. Such data can be used to develop or improve user’s experience, systems and software.

By clicking ‘I Agree’ you will allow the use of indicated cookies, device identifiers, web beacons or other similar technologies. Your settings can be changed in the browser on your device.

For certain purposes, legitimate interests may be relied on, rather than consent. You can read more about this in our Privacy and Cookie Policy.